Location: Bieg
(49.3499°N, 10.3835°E)
Time: 00:46:22
(UTC+00:00)

Cosmos 1346 Rocket - Pass Details

Date: 23 May 2024
Orbit: 508 x 521 km, 81.2° (Epoch: 15 June)

Event Time Altitude Azimuth Distance (km) Brightness Sun altitude
Rises 00:39:07 0° 342° (NNW) 2,661 7.2 -17.6°
Reaches altitude 10° 00:41:20 10° 336° (NNW) 1,769 6.0 -17.4°
Maximum altitude 00:45:02 43° 264° (W) 747 3.2 -17.2°
Enters shadow 00:45:54 36° 228° (SW) 839 3.3 -17.2°
